When you browse on this site, cookies collect data to enhance your experience and personalize the content and advertising you see.
Visit our Privacy Policy to learn more. By continuing to use the site, you agree to this use of cookies and data.
  • In Österreich
  • Länderverzeichnis
  • Für 7 Tage
  • Wassertemperatur
  • Satellitenkarten
  • Wetterkarte
  • News
  • Widgets
  • user-avatar
    Anmelden

    Stündliche Wetter Rivne

    Heute, 25 April, Donnerstag

    Zeit Temperatur Niederschläge Wind Luftdruck Luftfeuchtigkeit
    00:00 +13°C° 0 mm 6 m/S 736 mmHg 88%
    01:00 +11°C° 0 mm 6 m/S 736 mmHg 89%
    02:00 +10°C° 0 mm 2 m/S 735 mmHg 79%
    03:00 +10°C° 0 mm 3 m/S 735 mmHg 87%
    04:00 +10°C° 0 mm 4 m/S 735 mmHg 83%
    05:00 +10°C° 0 mm 4 m/S 735 mmHg 81%
    06:00 +10°C° 0 mm 4 m/S 735 mmHg 81%
    07:00 +11°C° 0 mm 4 m/S 736 mmHg 80%
    08:00 +13°C° 0 mm 4 m/S 736 mmHg 80%
    09:00 +14°C° 0 mm 4 m/S 737 mmHg 80%
    10:00 +16°C° 0 mm 3 m/S 737 mmHg 79%
    11:00 +17°C° 0 mm 3 m/S 737 mmHg 78%
    12:00 +18°C° 0 mm 2 m/S 737 mmHg 75%
    13:00 +19°C° 0 mm 2 m/S 737 mmHg 75%
    14:00 +21°C° 0 mm 1 m/S 736 mmHg 73%
    15:00 +21°C° 0 mm 1 m/S 736 mmHg 73%
    16:00 +21°C° 0 mm 1 m/S 736 mmHg 75%
    17:00 +20°C° 0 mm 2 m/S 736 mmHg 76%
    18:00 +20°C° 0 mm 2 m/S 735 mmHg 79%
    19:00 +20°C° 0 mm 1 m/S 735 mmHg 88%
    20:00 +20°C° 0 mm 1 m/S 735 mmHg 87%
    21:00 +19°C° 0 mm 1 m/S 735 mmHg 86%
    22:00 +16°C° 0 mm 2 m/S 735 mmHg 93%
    23:00 +16°C° 0 mm 2 m/S 735 mmHg 95%

    Morgen, 26 April, Freitag

    Zeit Temperatur Niederschläge Wind Luftdruck Luftfeuchtigkeit
    00:00 +15°C° 0 mm 2 m/S 735 mmHg 91%
    01:00 +16°C° 0 mm 2 m/S 735 mmHg 88%
    02:00 +15°C° 0 mm 2 m/S 735 mmHg 88%
    03:00 +15°C° 0 mm 2 m/S 735 mmHg 88%
    04:00 +15°C° 0 mm 2 m/S 735 mmHg 90%
    05:00 +14°C° 0 mm 2 m/S 735 mmHg 91%
    06:00 +14°C° 0 mm 2 m/S 735 mmHg 93%
    07:00 +14°C° 0 mm 2 m/S 735 mmHg 95%
    08:00 +14°C° 0 mm 3 m/S 735 mmHg 96%
    09:00 +16°C° 0 mm 3 m/S 735 mmHg 97%
    10:00 +18°C° 0 mm 3 m/S 735 mmHg 95%
    11:00 +19°C° 0 mm 3 m/S 735 mmHg 92%
    12:00 +20°C° 0 mm 2 m/S 735 mmHg 87%
    13:00 +20°C° 0 mm 2 m/S 735 mmHg 86%
    14:00 +21°C° 0 mm 3 m/S 734 mmHg 84%
    15:00 +21°C° 0 mm 2 m/S 734 mmHg 82%
    16:00 +23°C° 0 mm 1 m/S 733 mmHg 81%
    17:00 +23°C° 0 mm 2 m/S 733 mmHg 80%
    18:00 +21°C° 0 mm 2 m/S 733 mmHg 88%
    19:00 +20°C° 0 mm 4 m/S 732 mmHg 91%
    20:00 +19°C° 0 mm 3 m/S 732 mmHg 93%
    21:00 +18°C° 0 mm 2 m/S 732 mmHg 94%
    22:00 +18°C° 0 mm 2 m/S 732 mmHg 94%
    23:00 +18°C° 0 mm 3 m/S 732 mmHg 94%

    übermorgen, 27 April, Samstag

    Zeit Temperatur Niederschläge Wind Luftdruck Luftfeuchtigkeit
    00:00 +17°C° 0 mm 3 m/S 732 mmHg 94%
    01:00 +16°C° 0 mm 3 m/S 731 mmHg 95%
    02:00 +16°C° 0 mm 3 m/S 731 mmHg 96%
    03:00 +15°C° 0 mm 4 m/S 731 mmHg 96%
    04:00 +14°C° 0 mm 3 m/S 731 mmHg 96%
    05:00 +14°C° 0 mm 4 m/S 730 mmHg 96%
    06:00 +14°C° 0 mm 4 m/S 730 mmHg 96%
    07:00 +14°C° 0 mm 4 m/S 730 mmHg 97%
    08:00 +14°C° 0 mm 5 m/S 730 mmHg 97%
    09:00 +15°C° 0 mm 5 m/S 729 mmHg 95%
    10:00 +17°C° 0 mm 5 m/S 729 mmHg 92%
    11:00 +19°C° 0 mm 4 m/S 729 mmHg 90%
    12:00 +21°C° 0 mm 4 m/S 728 mmHg 87%
    13:00 +22°C° 0 mm 4 m/S 728 mmHg 82%
    14:00 +22°C° 0 mm 4 m/S 727 mmHg 79%
    15:00 +22°C° 0 mm 4 m/S 727 mmHg 76%
    16:00 +21°C° 0 mm 6 m/S 726 mmHg 84%
    17:00 +19°C° 0.1 mm 5 m/S 726 mmHg 94%
    18:00 +19°C° 0 mm 4 m/S 726 mmHg 95%
    19:00 +18°C° 0 mm 3 m/S 726 mmHg 96%
    20:00 +17°C° 1.6 mm 3 m/S 726 mmHg 99%
    21:00 +16°C° 0.6 mm 3 m/S 726 mmHg 100%
    22:00 +16°C° 0 mm 2 m/S 726 mmHg 100%
    23:00 +15°C° 0 mm 2 m/S 726 mmHg 100%

    28 April, Sonntag

    Zeit Temperatur Niederschläge Wind Luftdruck Luftfeuchtigkeit
    00:00 +15°C° 0 mm 2 m/S 726 mmHg 100%
    01:00 +15°C° 3.3 mm 2 m/S 725 mmHg 100%
    02:00 +13°C° 6.6 mm 3 m/S 725 mmHg 100%
    03:00 +13°C° 2.4 mm 2 m/S 725 mmHg 100%
    04:00 +13°C° 1 mm 2 m/S 725 mmHg 100%
    05:00 +12°C° 0.1 mm 1 m/S 725 mmHg 100%
    06:00 +12°C° 0.1 mm 1 m/S 725 mmHg 100%
    07:00 +13°C° 0.7 mm 2 m/S 726 mmHg 100%
    08:00 +13°C° 0 mm 2 m/S 726 mmHg 100%
    09:00 +13°C° 0 mm 3 m/S 726 mmHg 99%
    10:00 +12°C° 0 mm 4 m/S 727 mmHg 99%
    11:00 +13°C° 0.2 mm 3 m/S 727 mmHg 99%
    12:00 +14°C° 0 mm 3 m/S 727 mmHg 98%
    13:00 +16°C° 0 mm 3 m/S 727 mmHg 94%
    14:00 +16°C° 0.1 mm 3 m/S 727 mmHg 92%
    15:00 +16°C° 1.8 mm 2 m/S 727 mmHg 91%
    16:00 +16°C° 1.6 mm 3 m/S 726 mmHg 88%
    17:00 +16°C° 0.9 mm 2 m/S 727 mmHg 91%
    18:00 +16°C° 0 mm 2 m/S 727 mmHg 87%
    19:00 +16°C° 0 mm 2 m/S 727 mmHg 89%
    20:00 +15°C° 0 mm 1 m/S 727 mmHg 96%
    21:00 +14°C° 0 mm 2 m/S 728 mmHg 98%
    22:00 +14°C° 0 mm 1 m/S 728 mmHg 98%
    23:00 +13°C° 0 mm 1 m/S 728 mmHg 97%

    29 April, Montag

    Zeit Temperatur Niederschläge Wind Luftdruck Luftfeuchtigkeit
    00:00 +13°C° 0 mm 1 m/S 728 mmHg 94%
    01:00 +12°C° 0 mm 1 m/S 728 mmHg 93%
    02:00 +12°C° 0 mm 1 m/S 728 mmHg 94%

    30 April, Dienstag

    Zeit Temperatur Niederschläge Wind Luftdruck Luftfeuchtigkeit
    Mehr zeigen